Location: Marstown
(39.5056°N, 77.0820°W)
Time: 02:01:24
(UTC-04:00)

Envisat - Visible Passes

Search period start: 20 July 2024 00:00
Search period end: 30 July 2024 00:00
Orbit: 762 x 764 km, 98.3° (Epoch: 19 July)

Date Brightness Start Highest point End Pass type
(mag) Time Alt. Az. Time Alt. Az. Time Alt. Az.
20 Jul 3.0 04:26:08 10° NNE 04:31:14 89° W 04:35:28 15° SSW visible
21 Jul 4.1 03:49:02 10° NNE 03:53:47 39° E 03:57:35 15° SSE visible
22 Jul 5.3 03:12:49 10° NE 03:16:08 17° E 03:19:25 10° SE visible
22 Jul 3.3 04:50:27 10° N 04:55:22 52° WNW 04:59:51 12° SW visible
23 Jul 3.2 04:12:58 10° NNE 04:18:02 69° ESE 04:21:57 17° S visible
24 Jul 4.5 03:36:06 10° NE 03:40:31 30° E 03:44:03 14° SSE visible
24 Jul 4.0 05:15:00 10° N 05:19:24 31° WNW 05:23:48 10° SW visible
25 Jul 5.5 03:00:36 10° ENE 03:02:47 13° E 03:04:57 10° ESE visible
25 Jul 3.0 04:37:09 10° N 04:42:12 69° WNW 04:46:18 16° SSW visible
26 Jul 3.6 03:59:52 10° NNE 04:04:49 51° E 04:08:25 18° S visible
27 Jul 4.9 03:23:17 10° NE 03:27:13 22° E 03:30:31 13° SE visible
27 Jul 3.6 05:01:34 10° N 05:06:17 40° WNW 05:10:40 12° SW visible
28 Jul 3.0 04:23:55 10° NNE 04:29:01 89° E 04:32:46 19° SSW visible
29 Jul 4.1 03:46:50 10° NNE 03:51:34 38° E 03:54:52 18° SSE visible
29 Jul 4.3 05:26:15 10° NNW 05:30:17 24° WNW 05:34:19 10° WSW visible
